Regional Weather Roundup
Issued by NWS

Home | Current Version | Previous Version | Text Only | Print | Product List | Glossary On
Versions: 1 2 3 4 5 6 7 8 9 10 11 12 13 14 15 16 17 18 19 20 21 22 23 24 25 26 27 28 29 30 31 32 33 34 35 36 37 38 39 40 41 42 43 44 45 46 47 48 49 50
000
ASUS44 KLIX 020111
RWRLA
LOUISIANA WEATHER ROUNDUP
NATIONAL WEATHER SERVICE NEW ORLEANS LA
800 PM CDT WED APR 01 2015

NOTE: "FAIR" INDICATES FEW OR NO CLOUDS BELOW 12,000 FEET WITH NO
      SIGNIFICANT WEATHER AND/OR OBSTRUCTIONS TO VISIBILITY.
      SKY/WX - SKY CONDITION AND SIGNIFICANT WEATHER.
      TMP - AIR TEMPERATURE.    DP   - DEWPOINT TEMPERATURE.
      RH  - RELATIVE HUMIDITY.  PRES - PRESSURE.
      HX  - HEAT INDEX.         WCI  - WIND CHILL INDEX.

*  THESE STATIONS ARE NOT NWS OR FAA STATIONS AND ARE NOT UNDER
   NWS QUALITY CONTROL.

LAZ040-048-061>063-065-066-069-020200-
SOUTHEAST LOUISIANA

CITY           SKY/WX    TMP DP  RH WIND       PRES   REMARKS
N.O. AUDUBON     N/A     76  70  81 MISG        N/A
N.O. INTL ARPT CLOUDY    74  64  71 S9        30.03R
N.O. LAKEFRONT CLOUDY    76  65  68 S12       30.04R
SLIDELL        CLOUDY    74  66  76 SE5       30.04R
BATON ROUGE    CLOUDY    74  62  66 S8        30.01S
BOOTHVILLE     CLOUDY    73  69  87 SE6       30.06R
BELLE CHASSE   CLOUDY    72  65  78 S7        30.04R
BOGALUSA*        N/A     75  64  66 S6        30.04R
GALLIANO*      CLOUDY    73  68  82 CALM      30.04S
NEW ROADS*     FAIR      73  63  70 S3        30.01R
GONZALES*      FAIR      73  64  72 SE3       30.02S
HAMMOND*       CLOUDY    73  63  68 S7        30.04R
HOUMA*         CLOUDY    72  67  86 SE3       30.03R
PORT FOURCHON* MOCLDY    75  70  83 SE6       30.07S

$$

LAZ041-044-053-054-020200-
SOUTHWEST LOUISIANA

CITY           SKY/WX    TMP DP  RH WIND       PRES   REMARKS
LAKE CHARLES   CLOUDY    73  67  81 S5        29.99R
LAFAYETTE      CLOUDY    73  66  78 S5        30.01R
PATTERSON      CLOUDY    72  64  78 S5        30.03S
SALT POINT       N/A     72  68  87 E3        30.00S
NEW IBERIA     CLOUDY    73  66  78 S10       30.02R
CHENAULT AIRPK MOCLDY    73  66  78 S8        29.99R

$$

LAZ027-028-020200-
CENTRAL LOUISIANA

CITY           SKY/WX    TMP DP  RH WIND       PRES   REMARKS
FORT POLK      CLOUDY    70  65  83 SE7       29.95F
ALEXANDRIA INT CLOUDY    74  63  68 S10       29.95S
ALEXANDRIA     CLOUDY    74  63  68 S7        29.97S

$$

LAZ001-002-020200-
NORTHWEST LOUISIANA

CITY           SKY/WX    TMP DP  RH WIND       PRES   REMARKS
SHREVEPORT     MOCLDY    74  61  63 S15       29.90R
BARKSDALE AFB  MOCLDY    72  62  70 S15       29.91R
DTN SHREVEPORT MOCLDY    73  59  61 S17       29.90R

$$

LAZ014-016-020200-
NORTHEAST LOUISIANA

CITY           SKY/WX    TMP DP  RH WIND       PRES   REMARKS
MONROE         CLOUDY    75  62  64 SW10      29.95R
TALLULAH       CLOUDY    74  56  53 S7        29.96R

$$



USA.gov is the U.S. government's official web portal to all federal, state and local government web resources and services.